| time (UTC) | temp F | wind direction | speed MPH | gust MPH | rain 1hr in | rain 24hr in | rain mn in | humidity % | barometer mb |
| 20260507130153 | 43 | 339 | 14.0 | 22.0 | 0.00 | 0.00 | 0.00 | 55 | 865.7 |
| 20260507120126 | 43 | 350 | 12.0 | 22.0 | 0.00 | 0.00 | 0.00 | 52 | 866.0 |
| 20260507110122 | 43 | 327 | 13.0 | 18.0 | 0.00 | 0.00 | 0.00 | 59 | 866.1 |
| 20260507100153 | 43 | 338 | 14.0 | 23.0 | 0.00 | 0.00 | 0.00 | 62 | 866.3 |
| 20260507090128 | 43 | 338 | 13.0 | 21.0 | 0.00 | 0.00 | 0.00 | 54 | 866.5 |
| 20260507080126 | 45 | 329 | 13.0 | 20.0 | 0.00 | 0.00 | 0.00 | 45 | 866.8 |
| 20260507070136 | 46 | 340 | 11.0 | 20.0 | 0.00 | 0.00 | 0.00 | 46 | 867.2 |
| 20260507060148 | 47 | 300 | 13.0 | 16.0 | 0.00 | 0.00 | 0.00 | 43 | 867.6 |
| 20260507050156 | 49 | 311 | 12.0 | 20.0 | 0.00 | 0.00 | 0.00 | 46 | 867.6 |
| 20260507043345 | 50 | 355 | 10.0 | 18.0 | 0.00 | 0.00 | 0.00 | 48 | 867.7 |
| 20260507030204 | 52 | 274 | 12.0 | 20.0 | 0.00 | 0.00 | 0.00 | 48 | 867.4 |
| 20260507020055 | 53 | 280 | 12.0 | 20.0 | 0.00 | 0.00 | 0.00 | 50 | 867.5 |
| 20260507012055 | 58 | 269 | 11.0 | 20.0 | 0.00 | 0.00 | 0.00 | 58 | 867.3 |
| 20260507001758 | 58 | 266 | 13.0 | 18.0 | 0.00 | 0.00 | 0.00 | 48 | 867.4 |
| 20260506231038 | 60 | 296 | 11.0 | 15.0 | 0.00 | 0.00 | 0.00 | 44 | 867.7 |
| 20260506220709 | 59 | 279 | 19.0 | 24.0 | 0.00 | 0.00 | 0.00 | 44 | 868.1 |
| 20260506210309 | 58 | 293 | 9.0 | 22.0 | 0.00 | 0.00 | 0.00 | 48 | 868.5 |
| 20260506202736 | 57 | 233 | 14.0 | 24.0 | 0.00 | 0.00 | 0.00 | 48 | 868.6 |
| 20260506191750 | 55 | 269 | 11.0 | 14.0 | 0.00 | 0.00 | 0.00 | 52 | 868.9 |
| 20260506181258 | 53 | 217 | 6.0 | 9.0 | 0.00 | 0.00 | 0.00 | 55 | 868.7 |
| 20260506171019 | 53 | 239 | 6.0 | 9.0 | 0.00 | 0.00 | 0.00 | 55 | 868.5 |
| 20260506160402 | 50 | 233 | 3.0 | 5.0 | 0.00 | 0.00 | 0.00 | 56 | 868.3 |
| 20260506152855 | 50 | 232 | 1.0 | 4.0 | 0.00 | 0.00 | 0.00 | 53 | 868.2 |
| 20260506140151 | 50 | 321 | 5.0 | 9.0 | 0.00 | 0.00 | 0.00 | 52 | 867.9 |